Tracking 20715 objects as of 27-May-2020
HD Live streaming from Space Station
objects crossing your sky now

IRIDIUM 33 DEB

Track IRIDIUM 33 DEB now!
10-day predictions


NORAD ID: 34651
Int'l Code: 1997-051KC
Perigee: 755.8 km
Apogee: 1,032.3 km
Inclination: 86.3 °
Period: 102.7 minutes
Semi major axis: 7265 km
RCS: 0.0077 m2 (small)
Launch date: September 14, 1997
Source: United States (US)
Launch site: TYURATAM MISSILE AND SPACE COMPLEX (TTMTR)

Note: This is SATELLITE DEBRIS
aabbcc
Your satellite tracking list
Your tracking list is empty




NASA's NSSDC Master Catalog

Two Line Element Set (TLE):
1 34651U 97051KC  20147.74859312  .00000802  00000-0  43830-3 0  9995
2 34651  86.2939 258.3269 0190281  63.6110 298.4461 14.02000101573773
Source of the keplerian elements: AFSPC